Change the Weather History Date:

Wednesday, March 28, 2012

  Actual Average Record
Temperature  
Mean Temperature 46 °F -  
Max Temperature 59 °F 47 °F 78 °F (1998)
Min Temperature 33 °F 31 °F 21 °F (2011)
Degree Days  
Heating Degree Days 19    
Moisture  
Dew Point 26 °F    
Average Humidity 52    
Maximum Humidity 81    
Minimum Humidity 28    
Precipitation  
Precipitation 0.00 in - - ()
Sea Level Pressure  
Sea Level Pressure 29.87 in    
Wind  
Wind Speed 4 mph (SSW)    
Max Wind Speed 14 mph    
Max Gust Speed 18 mph    
Visibility 10 miles    
Events Rain , Thunderstorm    
Averages and records for this station are not official NWS values.
T = Trace of Precipitation, MM = Missing Value Source: NWS Daily Summary

Daily Weather History Graph

Daily Weather History Graph

Search for Another Location

Airport or City:

Trip Planner

Search our weather history database for the weather conditions in past years. The results will help you decide how hot, cold, wet, or windy it might be!

Date:

Astronomy

Mar. 28, 2012 Rise Set
Actual Time 6:41 AM EDT 7:13 PM EDT
Civil Twilight 6:13 AM EDT 7:41 PM EDT
Nautical Twilight 5:40 AM EDT 8:14 PM EDT
Astronomical Twilight 5:07 AM EDT 8:48 PM EDT
Moon 9:52 AM EDT (3/28) 12:17 AM EDT (3/28)
Length of Visible Light 13h 28m
Length of Day
12h 32m
Waxing Crescent, 30% of the Moon is Illuminated
Mar 28
Waxing Crescent
Mar 30
First Quarter
Apr 6
Full
Apr 13
Last Quarter
Apr 21
New

Hourly Weather History & Observations

Time (EDT) Temp. Windchill Dew Point Humidity Pressure Visibility Wind Dir Wind Speed Gust Speed Precip Events Conditions
12:15 AM 33.8 °F - 10.4 °F 38% 30.16 in 10.0 mi Calm Calm - N/A   Scattered Clouds
12:35 AM 33.8 °F - 14.0 °F 44% 30.15 in 10.0 mi Calm Calm - N/A   Overcast
12:55 AM 35.6 °F - 6.8 °F 30% 30.17 in 10.0 mi Calm Calm - N/A   Overcast
1:15 AM 33.8 °F - 15.8 °F 48% 30.15 in 10.0 mi Calm Calm - N/A   Overcast
1:35 AM 35.6 °F - 12.2 °F 38% 30.16 in 10.0 mi Calm Calm - N/A   Overcast
1:55 AM 35.6 °F - 12.2 °F 38% 30.14 in 10.0 mi Calm Calm - N/A   Overcast
2:35 AM 37.4 °F 33.8 °F 6.8 °F 28% 30.11 in 10.0 mi South 4.6 mph - N/A   Overcast
2:55 AM 37.4 °F 32.8 °F 8.6 °F 30% 30.10 in 10.0 mi South 5.8 mph - N/A   Overcast
3:15 AM 37.4 °F 32.8 °F 6.8 °F 28% 30.09 in 10.0 mi South 5.8 mph - N/A   Overcast
3:55 AM 37.4 °F 32.8 °F 8.6 °F 30% 30.04 in 10.0 mi South 5.8 mph - N/A   Partly Cloudy
4:15 AM 39.2 °F 34.2 °F 12.2 °F 33% 30.05 in 10.0 mi SSW 6.9 mph - N/A   Clear
4:35 AM 37.4 °F 32.8 °F 15.8 °F 41% 30.05 in 10.0 mi SSW 5.8 mph - N/A   Clear
5:15 AM 37.4 °F 33.8 °F 21.2 °F 52% 30.04 in 10.0 mi South 4.6 mph - N/A   Scattered Clouds
5:35 AM 37.4 °F 32.8 °F 21.2 °F 52% 30.03 in 10.0 mi South 5.8 mph - N/A   Partly Cloudy
5:45 AM 39.2 °F 34.2 °F 21.2 °F 49% 30.03 in 10.0 mi South 6.9 mph - N/A   Clear
7:45 AM 39.2 °F 34.2 °F 21.2 °F 49% 29.98 in 10.0 mi South 6.9 mph - N/A   Scattered Clouds
8:45 AM 42.8 °F 36.6 °F 24.8 °F 49% 29.93 in 10.0 mi South 11.5 mph 16.1 mph N/A   Clear
9:45 AM 46.4 °F 41.5 °F 26.6 °F 46% 29.88 in 10.0 mi SSW 10.4 mph - N/A   Overcast
10:45 AM 46.4 °F 41.9 °F 28.4 °F 50% 29.85 in 10.0 mi SW 9.2 mph - N/A   Overcast
11:45 AM 46.4 °F 43.5 °F 30.2 °F 53% 29.81 in 5.0 mi SSW 5.8 mph - N/A Thunderstorm Unknown
12:55 PM 42.8 °F 38.6 °F 26.6 °F 53% 29.78 in 5.0 mi South 6.9 mph - N/A Rain Light Rain
1:01 PM 42.8 °F 40.1 °F 26.6 °F 53% 29.81 in 5.0 mi West 4.6 mph - N/A Rain , Thunderstorm Thunderstorms and Rain
1:55 PM 42.8 °F - 37.4 °F 81% 29.73 in 10.0 mi Calm Calm - N/A   Mostly Cloudy
2:45 PM 48.2 °F - 39.2 °F 71% 29.69 in 10.0 mi SW 9.2 mph - N/A   Scattered Clouds
3:45 PM 51.8 °F - 39.2 °F 62% 29.64 in 10.0 mi SW 9.2 mph - N/A   Clear
4:55 PM 57.2 °F - 41.0 °F 55% 29.62 in 10.0 mi WSW 8.1 mph - N/A   Clear
5:45 PM 59.0 °F - 39.2 °F 48% 29.59 in 10.0 mi SW 6.9 mph - N/A   Clear
6:55 PM 53.6 °F - 39.2 °F 58% 29.59 in 10.0 mi South 5.8 mph - N/A   Clear
7:45 PM 51.8 °F - 39.2 °F 62% 29.57 in 10.0 mi South 8.1 mph - N/A   Clear
9:35 PM 51.8 °F - 39.2 °F 62% 29.61 in 10.0 mi East 5.8 mph - N/A   Overcast
9:55 PM 51.8 °F - 39.2 °F 62% 29.60 in 10.0 mi Calm Calm - N/A   Scattered Clouds
10:15 PM 48.2 °F - 39.2 °F 71% 29.59 in 10.0 mi Calm Calm - N/A   Scattered Clouds
10:35 PM 48.2 °F - 39.2 °F 71% 29.61 in 10.0 mi North 9.2 mph - N/A   Overcast
10:55 PM 48.2 °F - 41.0 °F 76% 29.61 in 10.0 mi North 5.8 mph - N/A   Overcast
11:15 PM 50.0 °F - 42.8 °F 76% 29.61 in 10.0 mi NNE 5.8 mph - N/A   Overcast
11:35 PM 51.8 °F - 42.8 °F 71% 29.61 in 10.0 mi NNE 13.8 mph 18.4 mph N/A   Overcast